Location: Dammartin
(48.9032°N, 1.6195°E)
Time: 11:12:50
(UTC+00:00)

IRIDIUM 114 - Pass Details

Date: 03 February 2023
Orbit: 776 x 779 km, 86.4° (Epoch: 29 March)

Event Time Altitude Azimuth Distance (km) Brightness Sun altitude
Rises 18:42:29 0° 356° (N) 3,274 7.6 -18.0°
Reaches altitude 10° 18:44:50 10° 356° (N) 2,341 6.8 -18.4°
Maximum altitude 18:50:06 89° 85° (E) 785 4.3 -19.3°
Drops below altitude 10° 18:55:19 10° 178° (S) 2,323 6.8 -20.1°
Sets 18:57:39 0° 178° (S) 3,246 7.6 -20.5°
